Location: Unspecified
(51.0000°N, 12.0000°E)
Time: 05:18:45
(UTC+02:00)

ISS - Visible Passes

Search period start: 21 October 2018 00:00
Search period end: 30 October 2018 23:00
Orbit: 403 x 408 km, 51.6° (Epoch: 21 October)

Date Brightness Start Highest point End Pass type
(mag) Time Alt. Az. Time Alt. Az. Time Alt. Az.
26 Oct -0.8 07:07:17 10° S 07:09:08 14° SE 07:10:59 10° ESE visible
28 Oct -1.7 05:58:29 10° SSW 06:01:15 25° SSE 06:04:02 10° E visible
29 Oct -1.1 05:07:12 10° S 05:09:24 17° SE 05:11:36 10° E visible
30 Oct -0.7 04:17:23 10° SE 04:17:36 11° SE 04:18:18 10° ESE visible
30 Oct -2.8 05:50:18 10° SW 05:53:26 44° SSE 05:56:35 10° E visible
